Regional Weather Roundup
Issued by NWS

Home | Current Version | Previous Version | Graphics & Text | Print | Product List | Glossary On
Versions: 1 2 3 4 5 6 7 8 9 10 11 12 13 14 15 16 17 18 19 20 21 22 23 24 25 26 27 28 29 30 31 32 33 34 35 36 37 38 39 40 41 42 43 44 45 46 47 48 49 50
000
ASUS45 KCYS 031710
RWRWY

WYOMING REGIONAL WEATHER ROUNDUP
NATIONAL WEATHER SERVICE CHEYENNE WY
1100 AM MDT MON AUG 03 2015

NOTE:  "FAIR" INDICATES FEW OR NO CLOUDS BELOW 12,000 FEET
WITH NO SIGNIFICANT WEATHER AND/OR OBSTRUCTIONS TO VISIBILITY.

WYZ001-031800-
YELLOWSTONE NATIONAL PARK

CITY           SKY/WX    TMP DP  RH WIND       PRES   REMARKS
LK YELLOWSTONE   N/A     65  43  44 VRB5      30.26S
W YELLOWSTONE  NOT AVBL

$$
WYZ002>013-054>058-071-098>099-031800-
NORTHERN WYOMING

CITY           SKY/WX    TMP DP  RH WIND       PRES   REMARKS
JACKSON        SUNNY     66  41  39 CALM      30.16S
CODY           FAIR      72  48  43 CALM      30.07S
GREYBULL       FAIR      79  42  26 SW5       29.98F
WORLAND        FAIR      79  41  25 SW3       30.01R
SHERIDAN       FAIR      79  51  37 N7        30.01F
BUFFALO        FAIR      82  52  35 SE12G20   30.08F
GILLETTE       FAIR      79  57  46 E13       30.06S
HULETT         FAIR      75  54  46 CALM      30.08S
NEWCASTLE      FAIR      77  52  41 MISG      30.07S

$$
WYZ014>020-022>026-101>103-031800-
CENTRAL WYOMING

CITY           SKY/WX    TMP DP  RH WIND       PRES   REMARKS
BIG PINEY      CLOUDY    64  48  56 SW14      30.24R
PINEDALE       PTSUNNY   64  45  48 S16G22    30.25R
DUBOIS         NOT AVBL
LANDER         FAIR      77  43  29 CALM      30.09S
RIVERTON       FAIR      72  50  45 S6        30.11R
CASPER         FAIR      79  48  33 W9        30.10F
DOUGLAS        FAIR      74  54  49 VRB5      30.10R

$$
WYZ021-027>030-104>119-031800-
SOUTHERN WYOMING

CITY           SKY/WX    TMP DP  RH WIND       PRES   REMARKS
EVANSTON       CLOUDY    56  53  90 NW7       30.19F
KEMMERER       LGT RAIN N/A N/A N/A N12       30.21F
FORT BRIDGER   CLOUDY    57  57 100 NE6       30.20S
ROCK SPRINGS   LGT RAIN  58  54  86 SE10      30.19F
DIXON          FAIR      66  52  61 NW5       30.23S
RAWLINS        FAIR      70  47  43 W14       30.22R
SARATOGA       FAIR      73  43  33 W8        30.23S
LARAMIE        FAIR      75  45  34 NE7       30.22F
CHEYENNE       FAIR      83  43  24 S12G18    30.14S
TORRINGTON     FAIR      77  57  50 SE5       30.03S
PINE BLUFFS    FAIR      82  48  30 S5        30.10R

$$


USA.gov is the U.S. government's official web portal to all federal, state and local government web resources and services.